Terminal Aerodrome Forecast
Issued by NWS

Home | Current Version | Previous Version | Text Only | Print | Product List | Glossary On
Versions: 1 2 3 4 5 6 7 8 9 10 11 12 13 14 15 16 17 18 19 20 21 22 23 24 25 26 27 28 29 30 31 32 33 34 35 36 37 38 39 40 41 42 43 44 45 46 47 48 49 50
000
FTUS41 KCTP 272148 AAA
TAFAOO
TAF AMD
KAOO 272148Z 2722/2818 30010KT 2SM -SHSN OVC025
      TEMPO 2722/2724 3/4SM -SHSN OVC015
     FM280000 29010KT 5SM -SHSN OVC025
     FM280300 30010KT P6SM OVC030
     FM281500 29010KT P6SM BKN040=

USA.gov is the U.S. government's official web portal to all federal, state and local government web resources and services.